FW2521 Weather Reports


time (UTC)temp
C
wind
direction
speed
KPH
gust
KPH
rain 1hr
cm
rain 24hr
cm
rain mn
cm
humidity
%
barometer
mb
20260508184649 20 154 9.7 14.5 0.00 0.00 0.00 37 1015.5
20260508181607 20 256 3.2 12.9 0.00 0.00 0.00 37 1015.7
20260508180049 19 163 3.2 11.3 0.00 0.00 0.00 35 1015.8
20260508174549 19 324 8.0 19.3 0.00 0.00 0.00 35 1015.9
20260508171553 18 155 4.8 8.0 0.00 0.00 0.00 35 1016.3
20260508170048 18 157 0.0 4.8 0.00 0.00 0.00 36 1016.5
20260508164548 17 305 0.0 6.4 0.00 0.00 0.00 39 1016.9
20260508161545 18 59 1.6 9.7 0.00 0.00 0.00 35 1017.2
20260508160044 18 138 3.2 8.0 0.00 0.00 0.00 37 1017.3
20260508154544 17 51 1.6 9.7 0.00 0.00 0.00 36 1017.6
20260508151546 17 40 3.2 8.0 0.00 0.03 0.00 37 1017.7
20260508150055 17 160 1.6 12.9 0.00 0.03 0.00 40 1017.5
20260508144546 17 36 3.2 9.7 0.00 0.03 0.00 39 1017.6
20260508141539 16 161 4.8 12.9 0.00 0.13 0.00 43 1017.8
20260508140044 16 92 4.8 12.9 0.00 0.13 0.00 40 1017.9
20260508134537 16 135 1.6 12.9 0.00 0.13 0.00 44 1017.9
20260508131534 15 80 6.4 12.9 0.00 0.15 0.00 47 1017.7
20260508130033 15 117 4.8 12.9 0.00 0.15 0.00 50 1017.6
20260508124631 14 82 3.2 9.7 0.00 0.15 0.00 51 1017.5
20260508121531 11 346 0.0 0.0 0.00 0.38 0.00 55 1017.2
20260508120028 11 347 0.0 0.0 0.00 0.38 0.00 57 1016.9
20260508114533 10 347 0.0 0.0 0.00 0.38 0.00 58 1016.8
20260508111525 10 360 0.0 0.0 0.00 0.51 0.00 57 1016.2
20260508110023 9 360 0.0 0.0 0.00 0.51 0.00 57 1015.9
20260508104521 9 360 0.0 0.0 0.00 0.51 0.00 57 1015.8
20260508101523 9 360 0.0 0.0 0.00 0.51 0.00 58 1015.2
20260508100018 10 360 0.0 1.6 0.00 0.51 0.00 58 1015.1
20260508094516 9 360 0.0 0.0 0.00 0.51 0.00 59 1015.0
20260508091515 10 360 0.0 0.0 0.00 0.51 0.00 59 1015.1
20260508090013 10 360 0.0 0.0 0.00 0.51 0.00 59 1014.9
20260508084513 10 360 0.0 0.0 0.00 0.51 0.00 59 1014.5
20260508081515 9 360 0.0 0.0 0.00 0.61 0.00 59 1014.4
20260508080010 10 360 0.0 0.0 0.00 0.61 0.00 59 1014.2
20260508074515 10 360 0.0 0.0 0.00 0.61 0.00 59 1014.2
20260508071507 10 360 0.0 0.0 0.00 1.07 0.00 59 1014.1
20260508070005 10 360 0.0 0.0 0.00 1.07 0.00 59 1014.0
20260508064516 10 360 0.0 0.0 0.00 1.07 0.00 60 1014.0
20260508061502 11 360 0.0 0.0 0.00 1.24 0.00 62 1013.9
20260508054626 11 360 0.0 0.0 0.00 1.24 0.00 61 1014.0
20260508051558 12 360 0.0 0.0 0.00 1.63 0.00 62 1013.9
20260508050054 12 360 0.0 1.6 0.00 1.63 0.00 59 1013.7
20260508044550 12 360 0.0 0.0 0.00 1.63 0.00 57 1013.5
20260508041544 14 360 0.0 0.0 0.00 1.63 0.00 56 1013.3
20260508040049 14 360 0.0 0.0 0.00 1.63 0.00 56 1013.5
20260508034538 15 360 0.0 0.0 0.00 1.63 0.00 53 1013.3
20260508031549 15 346 0.0 3.2 0.00 2.08 0.00 47 1013.2
20260508030034 16 342 1.6 4.8 0.00 2.08 0.00 46 1013.2
20260508024531 16 355 1.6 4.8 0.00 2.08 0.00 44 1012.9
20260508021525 16 334 1.6 6.4 0.00 2.97 0.00 44 1012.5
20260508020023 16 347 3.2 6.4 0.00 2.97 0.00 44 1012.3
20260508014521 17 335 4.8 12.9 0.00 2.97 0.00 46 1012.0
20260508011519 17 312 4.8 14.5 0.00 3.61 0.00 45 1011.4
20260508010024 17 336 4.8 16.1 0.00 3.61 0.00 49 1011.3
20260508004522 17 13 1.6 6.4 0.00 3.61 0.00 58 1010.8
20260508001510 18 82 4.8 9.7 0.00 4.19 0.00 59 1010.3
20260508000007 18 53 4.8 12.9 0.00 4.19 0.00 61 1009.8
20260507234510 18 69 1.6 11.3 0.00 4.19 0.00 61 1009.4
20260507231614 19 348 1.6 17.7 0.00 4.22 0.00 60 1008.9
20260507230056 20 54 9.7 19.3 0.00 4.22 0.00 59 1008.4
20260507224552 21 86 14.5 25.7 0.00 4.22 0.00 55 1007.7
20260507223148 23 342 6.4 17.7 0.00 4.22 0.00 46 1007.1
20260507221549 23 313 4.8 9.7 0.00 4.22 0.00 52 1006.7
20260507220046 23 147 0.0 0.0 0.00 4.22 0.00 53 1006.6
20260507214547 23 342 1.6 8.0 0.00 4.22 0.00 49 1006.5
20260507211554 24 355 0.0 8.0 0.00 4.22 0.00 47 1006.4
20260507210048 25 26 1.6 12.9 0.00 4.22 0.00 48 1006.4
20260507204543 23 309 3.2 9.7 0.00 4.22 0.00 50 1006.4
20260507203143 24 317 3.2 8.0 0.00 4.22 0.00 48 1006.5
20260507201542 23 350 1.6 6.4 0.00 4.22 0.00 50 1006.5
20260507200041 23 291 0.0 6.4 0.00 4.22 0.00 49 1006.6
20260507194539 25 168 1.6 16.1 0.00 4.22 0.00 47 1006.6
20260507193137 25 221 1.6 12.9 0.00 4.22 0.00 48 1006.8
20260507191534 24 5 1.6 16.1 0.00 4.22 4.22 47 1007.0
20260507190034 24 148 3.2 9.7 0.00 4.22 4.22 48 1007.5